Datum;Uhrzeit;Fahrradbruecke;Fahrradbruecke stadteinwaerts;Fahrradbruecke stadtauswaerts
08.08.2018;00:00;44;16;28
08.08.2018;00:15;28;7;21
08.08.2018;00:30;10;6;4
08.08.2018;00:45;29;8;21
08.08.2018;01:00;18;2;16
08.08.2018;01:15;9;2;7
08.08.2018;01:30;13;4;9
08.08.2018;01:45;9;1;8
08.08.2018;02:00;7;0;7
08.08.2018;02:15;8;3;5
08.08.2018;02:30;5;4;1
08.08.2018;02:45;5;2;3
08.08.2018;03:00;5;1;4
08.08.2018;03:15;1;1;0
08.08.2018;03:30;3;0;3
08.08.2018;03:45;2;0;2
08.08.2018;04:00;0;0;0
08.08.2018;04:15;3;2;1
08.08.2018;04:30;2;1;1
08.08.2018;04:45;4;3;1
08.08.2018;05:00;0;0;0
08.08.2018;05:15;6;2;4
08.08.2018;05:30;7;6;1
08.08.2018;05:45;28;16;12
08.08.2018;06:00;20;12;8
08.08.2018;06:15;23;20;3
08.08.2018;06:30;29;12;17
08.08.2018;06:45;55;37;18
08.08.2018;07:00;37;16;21
08.08.2018;07:15;53;27;26
08.08.2018;07:30;83;43;40
08.08.2018;07:45;98;49;49
08.08.2018;08:00;88;53;35
08.08.2018;08:15;112;47;65
08.08.2018;08:30;124;63;61
08.08.2018;08:45;126;75;51
08.08.2018;09:00;96;59;37
08.08.2018;09:15;71;33;38
08.08.2018;09:30;116;74;42
08.08.2018;09:45;140;80;60
08.08.2018;10:00;84;54;30
08.08.2018;10:15;59;35;24
08.08.2018;10:30;88;46;42
08.08.2018;10:45;97;52;45
08.08.2018;11:00;87;48;39
08.08.2018;11:15;71;32;39
08.08.2018;11:30;103;64;39
08.08.2018;11:45;134;60;74
08.08.2018;12:00;107;60;47
08.08.2018;12:15;138;67;71
08.08.2018;12:30;129;54;75
08.08.2018;12:45;147;80;67
08.08.2018;13:00;115;61;54
08.08.2018;13:15;120;67;53
08.08.2018;13:30;121;55;66
08.08.2018;13:45;110;53;57
08.08.2018;14:00;113;59;54
08.08.2018;14:15;143;71;72
08.08.2018;14:30;146;63;83
08.08.2018;14:45;173;78;95
08.08.2018;15:00;135;65;70
08.08.2018;15:15;170;80;90
08.08.2018;15:30;141;65;76
08.08.2018;15:45;147;70;77
08.08.2018;16:00;162;85;77
08.08.2018;16:15;191;86;105
08.08.2018;16:30;168;75;93
08.08.2018;16:45;245;113;132
08.08.2018;17:00;206;83;123
08.08.2018;17:15;201;103;98
08.08.2018;17:30;163;76;87
08.08.2018;17:45;204;111;93
08.08.2018;18:00;196;86;110
08.08.2018;18:15;180;74;106
08.08.2018;18:30;159;87;72
08.08.2018;18:45;208;93;115
08.08.2018;19:00;134;57;77
08.08.2018;19:15;172;91;81
08.08.2018;19:30;154;82;72
08.08.2018;19:45;157;86;71
08.08.2018;20:00;157;77;80
08.08.2018;20:15;140;67;73
08.08.2018;20:30;102;52;50
08.08.2018;20:45;75;39;36
08.08.2018;21:00;90;47;43
08.08.2018;21:15;74;34;40
08.08.2018;21:30;94;42;52
08.08.2018;21:45;99;43;56
08.08.2018;22:00;94;30;64
08.08.2018;22:15;89;36;53
08.08.2018;22:30;72;21;51
08.08.2018;22:45;75;24;51
08.08.2018;23:00;70;18;52
08.08.2018;23:15;65;20;45
08.08.2018;23:30;62;18;44
08.08.2018;23:45;54;13;41
09.08.2018;00:00;41;4;37
09.08.2018;00:15;36;3;33
09.08.2018;00:30;39;5;34
09.08.2018;00:45;30;10;20
09.08.2018;01:00;26;12;14
09.08.2018;01:15;14;0;14
09.08.2018;01:30;16;6;10
09.08.2018;01:45;7;4;3
09.08.2018;02:00;5;1;4
09.08.2018;02:15;15;5;10
09.08.2018;02:30;2;1;1
09.08.2018;02:45;4;2;2
09.08.2018;03:00;5;4;1
09.08.2018;03:15;3;2;1
09.08.2018;03:30;2;1;1
09.08.2018;03:45;1;0;1
09.08.2018;04:00;1;1;0
09.08.2018;04:15;1;0;1
09.08.2018;04:30;3;0;3
09.08.2018;04:45;4;2;2
09.08.2018;05:00;3;2;1
09.08.2018;05:15;8;3;5
09.08.2018;05:30;19;8;11
09.08.2018;05:45;17;12;5
09.08.2018;06:00;14;7;7
09.08.2018;06:15;29;19;10
09.08.2018;06:30;40;27;13
09.08.2018;06:45;57;35;22
09.08.2018;07:00;55;31;24
09.08.2018;07:15;77;39;38
09.08.2018;07:30;96;48;48
09.08.2018;07:45;123;67;56
09.08.2018;08:00;118;59;59
09.08.2018;08:15;133;76;57
09.08.2018;08:30;144;67;77
09.08.2018;08:45;154;97;57
09.08.2018;09:00;137;80;57
09.08.2018;09:15;115;73;42
09.08.2018;09:30;144;81;63
09.08.2018;09:45;136;77;59
09.08.2018;10:00;93;54;39
09.08.2018;10:15;100;51;49
09.08.2018;10:30;114;61;53
09.08.2018;10:45;142;70;72
09.08.2018;11:00;125;56;69
09.08.2018;11:15;152;63;89
09.08.2018;11:30;111;44;67
09.08.2018;11:45;140;68;72
09.08.2018;12:00;151;67;84
09.08.2018;12:15;150;63;87
09.08.2018;12:30;155;71;84
09.08.2018;12:45;151;55;96
09.08.2018;13:00;141;73;68
09.08.2018;13:15;115;53;62
09.08.2018;13:30;119;46;73
09.08.2018;13:45;168;81;87
09.08.2018;14:00;115;37;78
09.08.2018;14:15;130;65;65
09.08.2018;14:30;139;60;79
09.08.2018;14:45;135;72;63
09.08.2018;15:00;156;72;84
09.08.2018;15:15;152;78;74
09.08.2018;15:30;148;80;68
09.08.2018;15:45;183;89;94
09.08.2018;16:00;173;78;95
09.08.2018;16:15;198;94;104
09.08.2018;16:30;178;84;94
09.08.2018;16:45;206;90;116
09.08.2018;17:00;188;84;104
09.08.2018;17:15;225;105;120
09.08.2018;17:30;249;101;148
09.08.2018;17:45;170;67;103
09.08.2018;18:00;205;83;122
09.08.2018;18:15;137;49;88
09.08.2018;18:30;143;67;76
09.08.2018;18:45;112;47;65
09.08.2018;19:00;135;70;65
09.08.2018;19:15;100;39;61
09.08.2018;19:30;88;49;39
09.08.2018;19:45;99;50;49
09.08.2018;20:00;59;26;33
09.08.2018;20:15;73;34;39
09.08.2018;20:30;73;40;33
09.08.2018;20:45;67;29;38
09.08.2018;21:00;61;25;36
09.08.2018;21:15;46;18;28
09.08.2018;21:30;50;21;29
09.08.2018;21:45;44;16;28
09.08.2018;22:00;53;23;30
09.08.2018;22:15;60;25;35
09.08.2018;22:30;47;24;23
09.08.2018;22:45;45;25;20
09.08.2018;23:00;38;19;19
09.08.2018;23:15;51;21;30
09.08.2018;23:30;32;7;25
09.08.2018;23:45;23;9;14
10.08.2018;00:00;30;6;24
10.08.2018;00:15;30;6;24
10.08.2018;00:30;23;6;17
10.08.2018;00:45;16;2;14
10.08.2018;01:00;13;1;12
10.08.2018;01:15;10;3;7
10.08.2018;01:30;17;3;14
10.08.2018;01:45;5;1;4
10.08.2018;02:00;13;6;7
10.08.2018;02:15;7;3;4
10.08.2018;02:30;2;2;0
10.08.2018;02:45;0;0;0
10.08.2018;03:00;3;3;0
10.08.2018;03:15;1;0;1
10.08.2018;03:30;0;0;0
10.08.2018;03:45;2;2;0
10.08.2018;04:00;0;0;0
10.08.2018;04:15;1;1;0
10.08.2018;04:30;1;1;0
10.08.2018;04:45;1;0;1
10.08.2018;05:00;3;0;3
10.08.2018;05:15;13;1;12
10.08.2018;05:30;6;4;2
10.08.2018;05:45;10;7;3
10.08.2018;06:00;13;7;6
10.08.2018;06:15;32;20;12
10.08.2018;06:30;22;16;6
10.08.2018;06:45;47;30;17
10.08.2018;07:00;47;23;24
10.08.2018;07:15;37;21;16
10.08.2018;07:30;48;26;22
10.08.2018;07:45;67;37;30
10.08.2018;08:00;47;29;18
10.08.2018;08:15;70;35;35
10.08.2018;08:30;113;62;51
10.08.2018;08:45;117;75;42
10.08.2018;09:00;88;57;31
10.08.2018;09:15;90;58;32
10.08.2018;09:30;89;63;26
10.08.2018;09:45;96;46;50
10.08.2018;10:00;93;54;39
10.08.2018;10:15;99;51;48
10.08.2018;10:30;103;66;37
10.08.2018;10:45;146;80;66
10.08.2018;11:00;118;70;48
10.08.2018;11:15;116;62;54
10.08.2018;11:30;140;84;56
10.08.2018;11:45;116;54;62
10.08.2018;12:00;99;47;52
10.08.2018;12:15;128;42;86
10.08.2018;12:30;129;65;64
10.08.2018;12:45;143;90;53
10.08.2018;13:00;117;55;62
10.08.2018;13:15;120;68;52
10.08.2018;13:30;151;66;85
10.08.2018;13:45;140;58;82
10.08.2018;14:00;138;68;70
10.08.2018;14:15;127;66;61
10.08.2018;14:30;132;80;52
10.08.2018;14:45;169;66;103
10.08.2018;15:00;145;82;63
10.08.2018;15:15;154;73;81
10.08.2018;15:30;137;57;80
10.08.2018;15:45;161;70;91
10.08.2018;16:00;178;77;101
10.08.2018;16:15;200;96;104
10.08.2018;16:30;198;91;107
10.08.2018;16:45;161;80;81
10.08.2018;17:00;170;101;69
10.08.2018;17:15;160;73;87
10.08.2018;17:30;162;73;89
10.08.2018;17:45;165;79;86
10.08.2018;18:00;178;91;87
10.08.2018;18:15;133;57;76
10.08.2018;18:30;179;82;97
10.08.2018;18:45;161;77;84
10.08.2018;19:00;154;74;80
10.08.2018;19:15;166;67;99
10.08.2018;19:30;114;56;58
10.08.2018;19:45;113;68;45
10.08.2018;20:00;126;62;64
10.08.2018;20:15;119;62;57
10.08.2018;20:30;124;67;57
10.08.2018;20:45;98;51;47
10.08.2018;21:00;104;56;48
10.08.2018;21:15;112;72;40
10.08.2018;21:30;76;49;27
10.08.2018;21:45;83;42;41
10.08.2018;22:00;72;27;45
10.08.2018;22:15;51;18;33
10.08.2018;22:30;84;23;61
10.08.2018;22:45;86;21;65
10.08.2018;23:00;57;11;46
10.08.2018;23:15;78;22;56
10.08.2018;23:30;62;13;49
10.08.2018;23:45;49;9;40
11.08.2018;00:00;66;10;56
11.08.2018;00:15;67;12;55
11.08.2018;00:30;52;10;42
11.08.2018;00:45;49;8;41
11.08.2018;01:00;47;7;40
11.08.2018;01:15;25;5;20
11.08.2018;01:30;23;3;20
11.08.2018;01:45;15;1;14
11.08.2018;02:00;27;2;25
11.08.2018;02:15;10;6;4
11.08.2018;02:30;18;6;12
11.08.2018;02:45;12;4;8
11.08.2018;03:00;13;3;10
11.08.2018;03:15;12;2;10
11.08.2018;03:30;9;5;4
11.08.2018;03:45;20;13;7
11.08.2018;04:00;10;4;6
11.08.2018;04:15;4;3;1
11.08.2018;04:30;2;2;0
11.08.2018;04:45;11;2;9
11.08.2018;05:00;4;4;0
11.08.2018;05:15;8;2;6
11.08.2018;05:30;5;4;1
11.08.2018;05:45;11;7;4
11.08.2018;06:00;11;10;1
11.08.2018;06:15;19;13;6
11.08.2018;06:30;20;10;10
11.08.2018;06:45;18;9;9
11.08.2018;07:00;14;7;7
11.08.2018;07:15;14;3;11
11.08.2018;07:30;27;18;9
11.08.2018;07:45;37;19;18
11.08.2018;08:00;33;16;17
11.08.2018;08:15;58;33;25
11.08.2018;08:30;55;30;25
11.08.2018;08:45;63;37;26
11.08.2018;09:00;63;42;21
11.08.2018;09:15;82;49;33
11.08.2018;09:30;95;63;32
11.08.2018;09:45;125;78;47
11.08.2018;10:00;114;70;44
11.08.2018;10:15;139;70;69
11.08.2018;10:30;142;86;56
11.08.2018;10:45;135;68;67
11.08.2018;11:00;141;73;68
11.08.2018;11:15;168;82;86
11.08.2018;11:30;141;66;75
11.08.2018;11:45;188;108;80
11.08.2018;12:00;146;71;75
11.08.2018;12:15;144;82;62
11.08.2018;12:30;173;95;78
11.08.2018;12:45;152;81;71
11.08.2018;13:00;171;78;93
11.08.2018;13:15;157;73;84
11.08.2018;13:30;224;108;116
11.08.2018;13:45;198;69;129
11.08.2018;14:00;211;80;131
11.08.2018;14:15;249;72;177
11.08.2018;14:30;233;90;143
11.08.2018;14:45;258;107;151
11.08.2018;15:00;240;96;144
11.08.2018;15:15;216;72;144
11.08.2018;15:30;238;101;137
11.08.2018;15:45;271;110;161
11.08.2018;16:00;260;98;162
11.08.2018;16:15;215;79;136
11.08.2018;16:30;210;83;127
11.08.2018;16:45;240;80;160
11.08.2018;17:00;250;97;153
11.08.2018;17:15;244;134;110
11.08.2018;17:30;255;131;124
11.08.2018;17:45;238;104;134
11.08.2018;18:00;200;100;100
11.08.2018;18:15;218;100;118
11.08.2018;18:30;232;130;102
11.08.2018;18:45;286;122;164
11.08.2018;19:00;232;107;125
11.08.2018;19:15;186;99;87
11.08.2018;19:30;219;105;114
11.08.2018;19:45;197;90;107
11.08.2018;20:00;176;94;82
11.08.2018;20:15;193;80;113
11.08.2018;20:30;177;86;91
11.08.2018;20:45;179;95;84
11.08.2018;21:00;152;76;76
11.08.2018;21:15;157;57;100
11.08.2018;21:30;160;58;102
11.08.2018;21:45;124;69;55
11.08.2018;22:00;85;45;40
11.08.2018;22:15;49;30;19
11.08.2018;22:30;48;25;23
11.08.2018;22:45;97;47;50
11.08.2018;23:00;226;134;92
11.08.2018;23:15;266;163;103
11.08.2018;23:30;240;105;135
11.08.2018;23:45;199;81;118
12.08.2018;00:00;136;69;67
12.08.2018;00:15;150;70;80
12.08.2018;00:30;106;38;68
12.08.2018;00:45;107;37;70
12.08.2018;01:00;113;43;70
12.08.2018;01:15;62;22;40
12.08.2018;01:30;62;9;53
12.08.2018;01:45;47;9;38
12.08.2018;02:00;49;11;38
12.08.2018;02:15;36;8;28
12.08.2018;02:30;48;10;38
12.08.2018;02:45;35;12;23
12.08.2018;03:00;23;5;18
12.08.2018;03:15;42;17;25
12.08.2018;03:30;30;11;19
12.08.2018;03:45;15;8;7
12.08.2018;04:00;8;2;6
12.08.2018;04:15;12;7;5
12.08.2018;04:30;4;2;2
12.08.2018;04:45;10;7;3
12.08.2018;05:00;4;1;3
12.08.2018;05:15;5;3;2
12.08.2018;05:30;21;12;9
12.08.2018;05:45;4;3;1
12.08.2018;06:00;7;3;4
12.08.2018;06:15;12;2;10
12.08.2018;06:30;4;3;1
12.08.2018;06:45;7;4;3
12.08.2018;07:00;14;12;2
12.08.2018;07:15;9;2;7
12.08.2018;07:30;19;7;12
12.08.2018;07:45;16;11;5
12.08.2018;08:00;12;7;5
12.08.2018;08:15;27;13;14
12.08.2018;08:30;24;14;10
12.08.2018;08:45;23;11;12
12.08.2018;09:00;32;13;19
12.08.2018;09:15;46;24;22
12.08.2018;09:30;78;38;40
12.08.2018;09:45;80;53;27
12.08.2018;10:00;42;25;17
12.08.2018;10:15;64;37;27
12.08.2018;10:30;71;31;40
12.08.2018;10:45;102;45;57
12.08.2018;11:00;88;41;47
12.08.2018;11:15;85;42;43
12.08.2018;11:30;120;61;59
12.08.2018;11:45;112;57;55
12.08.2018;12:00;101;30;71
12.08.2018;12:15;121;63;58
12.08.2018;12:30;117;57;60
12.08.2018;12:45;96;54;42
12.08.2018;13:00;142;66;76
12.08.2018;13:15;105;46;59
12.08.2018;13:30;140;65;75
12.08.2018;13:45;130;61;69
12.08.2018;14:00;142;61;81
12.08.2018;14:15;128;56;72
12.08.2018;14:30;113;48;65
12.08.2018;14:45;129;68;61
12.08.2018;15:00;118;50;68
12.08.2018;15:15;110;57;53
12.08.2018;15:30;140;59;81
12.08.2018;15:45;135;63;72
12.08.2018;16:00;111;59;52
12.08.2018;16:15;128;55;73
12.08.2018;16:30;131;65;66
12.08.2018;16:45;130;83;47
12.08.2018;17:00;126;63;63
12.08.2018;17:15;123;51;72
12.08.2018;17:30;128;68;60
12.08.2018;17:45;137;66;71
12.08.2018;18:00;134;74;60
12.08.2018;18:15;141;88;53
12.08.2018;18:30;135;61;74
12.08.2018;18:45;109;51;58
12.08.2018;19:00;121;56;65
12.08.2018;19:15;131;80;51
12.08.2018;19:30;134;49;85
12.08.2018;19:45;103;48;55
12.08.2018;20:00;125;66;59
12.08.2018;20:15;112;52;60
12.08.2018;20:30;84;41;43
12.08.2018;20:45;108;62;46
12.08.2018;21:00;90;28;62
12.08.2018;21:15;75;35;40
12.08.2018;21:30;81;32;49
12.08.2018;21:45;44;11;33
12.08.2018;22:00;45;23;22
12.08.2018;22:15;42;18;24
12.08.2018;22:30;59;25;34
12.08.2018;22:45;52;20;32
12.08.2018;23:00;23;9;14
12.08.2018;23:15;32;16;16
12.08.2018;23:30;23;15;8
12.08.2018;23:45;26;7;19
13.08.2018;00:00;24;12;12
13.08.2018;00:15;15;4;11
13.08.2018;00:30;9;1;8
13.08.2018;00:45;17;8;9
13.08.2018;01:00;11;4;7
13.08.2018;01:15;7;3;4
13.08.2018;01:30;9;8;1
13.08.2018;01:45;9;3;6
13.08.2018;02:00;7;1;6
13.08.2018;02:15;4;3;1
13.08.2018;02:30;2;2;0
13.08.2018;02:45;5;3;2
13.08.2018;03:00;0;0;0
13.08.2018;03:15;1;1;0
13.08.2018;03:30;1;0;1
13.08.2018;03:45;0;0;0
13.08.2018;04:00;3;2;1
13.08.2018;04:15;1;1;0
13.08.2018;04:30;0;0;0
13.08.2018;04:45;3;1;2
13.08.2018;05:00;3;1;2
13.08.2018;05:15;9;6;3
13.08.2018;05:30;15;5;10
13.08.2018;05:45;17;11;6
13.08.2018;06:00;18;8;10
13.08.2018;06:15;32;25;7
13.08.2018;06:30;36;24;12
13.08.2018;06:45;56;39;17
13.08.2018;07:00;56;29;27
13.08.2018;07:15;65;37;28
13.08.2018;07:30;89;50;39
13.08.2018;07:45;121;73;48
13.08.2018;08:00;89;48;41
13.08.2018;08:15;113;71;42
13.08.2018;08:30;106;66;40
13.08.2018;08:45;121;68;53
13.08.2018;09:00;113;65;48
13.08.2018;09:15;127;76;51
13.08.2018;09:30;96;50;46
13.08.2018;09:45;118;58;60
13.08.2018;10:00;161;77;84
13.08.2018;10:15;138;79;59
13.08.2018;10:30;117;64;53
13.08.2018;10:45;124;53;71
13.08.2018;11:00;147;63;84
13.08.2018;11:15;137;77;60
13.08.2018;11:30;121;61;60
13.08.2018;11:45;154;86;68
13.08.2018;12:00;151;66;85
13.08.2018;12:15;153;64;89
13.08.2018;12:30;151;63;88
13.08.2018;12:45;167;79;88
13.08.2018;13:00;156;59;97
13.08.2018;13:15;121;57;64
13.08.2018;13:30;110;59;51
13.08.2018;13:45;72;44;28
13.08.2018;14:00;103;58;45
13.08.2018;14:15;126;63;63
13.08.2018;14:30;76;30;46
13.08.2018;14:45;82;38;44
13.08.2018;15:00;101;40;61
13.08.2018;15:15;86;45;41
13.08.2018;15:30;127;72;55
13.08.2018;15:45;123;54;69
13.08.2018;16:00;145;57;88
13.08.2018;16:15;125;62;63
13.08.2018;16:30;146;70;76
13.08.2018;16:45;132;63;69
13.08.2018;17:00;155;63;92
13.08.2018;17:15;146;77;69
13.08.2018;17:30;166;76;90
13.08.2018;17:45;143;69;74
13.08.2018;18:00;138;69;69
13.08.2018;18:15;145;71;74
13.08.2018;18:30;134;51;83
13.08.2018;18:45;131;66;65
13.08.2018;19:00;106;57;49
13.08.2018;19:15;94;40;54
13.08.2018;19:30;94;52;42
13.08.2018;19:45;103;44;59
13.08.2018;20:00;104;41;63
13.08.2018;20:15;80;36;44
13.08.2018;20:30;41;14;27
13.08.2018;20:45;56;20;36
13.08.2018;21:00;51;23;28
13.08.2018;21:15;64;25;39
13.08.2018;21:30;46;20;26
13.08.2018;21:45;45;19;26
13.08.2018;22:00;30;18;12
13.08.2018;22:15;28;12;16
13.08.2018;22:30;37;13;24
13.08.2018;22:45;41;23;18
13.08.2018;23:00;26;13;13
13.08.2018;23:15;25;8;17
13.08.2018;23:30;12;2;10
13.08.2018;23:45;12;4;8
14.08.2018;00:00;13;8;5
14.08.2018;00:15;13;3;10
14.08.2018;00:30;7;2;5
14.08.2018;00:45;6;2;4
14.08.2018;01:00;4;2;2
14.08.2018;01:15;11;4;7
14.08.2018;01:30;2;1;1
14.08.2018;01:45;4;3;1
14.08.2018;02:00;13;2;11
14.08.2018;02:15;8;4;4
14.08.2018;02:30;1;0;1
14.08.2018;02:45;2;0;2
14.08.2018;03:00;0;0;0
14.08.2018;03:15;4;1;3
14.08.2018;03:30;1;0;1
14.08.2018;03:45;4;3;1
14.08.2018;04:00;2;0;2
14.08.2018;04:15;5;4;1
14.08.2018;04:30;4;3;1
14.08.2018;04:45;1;0;1
14.08.2018;05:00;1;1;0
14.08.2018;05:15;3;0;3
14.08.2018;05:30;9;2;7
14.08.2018;05:45;11;6;5
14.08.2018;06:00;14;9;5
14.08.2018;06:15;28;26;2
14.08.2018;06:30;28;15;13
14.08.2018;06:45;53;37;16
14.08.2018;07:00;43;26;17
14.08.2018;07:15;68;39;29
14.08.2018;07:30;73;35;38
14.08.2018;07:45;103;55;48
14.08.2018;08:00;104;60;44
14.08.2018;08:15;96;52;44
14.08.2018;08:30;103;56;47
14.08.2018;08:45;118;77;41
14.08.2018;09:00;96;57;39
14.08.2018;09:15;118;72;46
14.08.2018;09:30;108;71;37
14.08.2018;09:45;114;63;51
14.08.2018;10:00;84;46;38
14.08.2018;10:15;109;53;56
14.08.2018;10:30;104;59;45
14.08.2018;10:45;118;61;57
14.08.2018;11:00;132;68;64
14.08.2018;11:15;149;68;81
14.08.2018;11:30;107;59;48
14.08.2018;11:45;135;79;56
14.08.2018;12:00;112;52;60
14.08.2018;12:15;132;60;72
14.08.2018;12:30;146;69;77
14.08.2018;12:45;111;57;54
14.08.2018;13:00;106;55;51
14.08.2018;13:15;74;29;45
14.08.2018;13:30;127;45;82
14.08.2018;13:45;105;41;64
14.08.2018;14:00;120;63;57
14.08.2018;14:15;109;58;51
14.08.2018;14:30;116;56;60
14.08.2018;14:45;118;54;64
14.08.2018;15:00;143;74;69
14.08.2018;15:15;145;74;71
14.08.2018;15:30;118;57;61
14.08.2018;15:45;152;80;72
14.08.2018;16:00;165;80;85
14.08.2018;16:15;160;85;75
14.08.2018;16:30;164;81;83
14.08.2018;16:45;164;77;87
14.08.2018;17:00;202;109;93
14.08.2018;17:15;210;80;130
14.08.2018;17:30;186;91;95
14.08.2018;17:45;193;81;112
14.08.2018;18:00;183;81;102
14.08.2018;18:15;158;62;96
14.08.2018;18:30;226;85;141
14.08.2018;18:45;177;68;109
14.08.2018;19:00;168;83;85
14.08.2018;19:15;122;41;81
14.08.2018;19:30;125;59;66
14.08.2018;19:45;122;54;68
14.08.2018;20:00;94;36;58
14.08.2018;20:15;82;49;33
14.08.2018;20:30;82;41;41
14.08.2018;20:45;93;50;43
14.08.2018;21:00;56;21;35
14.08.2018;21:15;88;42;46
14.08.2018;21:30;44;22;22
14.08.2018;21:45;59;24;35
14.08.2018;22:00;49;22;27
14.08.2018;22:15;53;16;37
14.08.2018;22:30;48;16;32
14.08.2018;22:45;52;19;33
14.08.2018;23:00;45;15;30
14.08.2018;23:15;26;9;17
14.08.2018;23:30;27;11;16
14.08.2018;23:45;29;15;14
15.08.2018;00:00;28;11;17
15.08.2018;00:15;16;4;12
15.08.2018;00:30;11;5;6
15.08.2018;00:45;12;5;7
15.08.2018;01:00;20;5;15
15.08.2018;01:15;12;4;8
15.08.2018;01:30;6;4;2
15.08.2018;01:45;6;3;3
15.08.2018;02:00;18;7;11
15.08.2018;02:15;7;1;6
15.08.2018;02:30;4;1;3
15.08.2018;02:45;4;2;2
15.08.2018;03:00;5;3;2
15.08.2018;03:15;4;1;3
15.08.2018;03:30;1;1;0
15.08.2018;03:45;2;0;2
15.08.2018;04:00;2;2;0
15.08.2018;04:15;1;0;1
15.08.2018;04:30;4;3;1
15.08.2018;04:45;0;0;0
15.08.2018;05:00;3;1;2
15.08.2018;05:15;7;4;3
15.08.2018;05:30;14;7;7
15.08.2018;05:45;18;10;8
15.08.2018;06:00;17;11;6
15.08.2018;06:15;32;22;10
15.08.2018;06:30;33;21;12
15.08.2018;06:45;53;34;19
15.08.2018;07:00;57;34;23
15.08.2018;07:15;69;34;35
15.08.2018;07:30;86;45;41
15.08.2018;07:45;110;60;50
15.08.2018;08:00;103;46;57
15.08.2018;08:15;86;51;35
15.08.2018;08:30;111;74;37
15.08.2018;08:45;131;95;36
15.08.2018;09:00;116;59;57
15.08.2018;09:15;135;75;60
15.08.2018;09:30;128;73;55
15.08.2018;09:45;153;85;68
15.08.2018;10:00;144;77;67
15.08.2018;10:15;121;47;74
15.08.2018;10:30;116;66;50
15.08.2018;10:45;128;63;65
15.08.2018;11:00;134;72;62
15.08.2018;11:15;140;94;46
15.08.2018;11:30;166;90;76
15.08.2018;11:45;144;72;72
15.08.2018;12:00;129;68;61
15.08.2018;12:15;180;75;105
15.08.2018;12:30;155;83;72
15.08.2018;12:45;181;79;102
15.08.2018;13:00;155;84;71
15.08.2018;13:15;118;54;64
15.08.2018;13:30;148;68;80
15.08.2018;13:45;126;54;72
15.08.2018;14:00;171;73;98
15.08.2018;14:15;126;69;57
15.08.2018;14:30;151;79;72
15.08.2018;14:45;178;84;94
15.08.2018;15:00;139;63;76
15.08.2018;15:15;167;75;92
15.08.2018;15:30;175;83;92
15.08.2018;15:45;181;84;97
15.08.2018;16:00;172;96;76
15.08.2018;16:15;172;89;83
15.08.2018;16:30;191;83;108
15.08.2018;16:45;195;103;92
15.08.2018;17:00;203;104;99
15.08.2018;17:15;215;100;115
15.08.2018;17:30;237;109;128
15.08.2018;17:45;233;106;127
15.08.2018;18:00;208;89;119
15.08.2018;18:15;183;80;103
15.08.2018;18:30;201;81;120
15.08.2018;18:45;180;81;99
15.08.2018;19:00;139;71;68
15.08.2018;19:15;145;56;89
15.08.2018;19:30;171;91;80
15.08.2018;19:45;161;92;69
15.08.2018;20:00;137;66;71
15.08.2018;20:15;112;61;51
15.08.2018;20:30;119;41;78
15.08.2018;20:45;94;47;47
15.08.2018;21:00;96;36;60
15.08.2018;21:15;87;30;57
15.08.2018;21:30;83;49;34
15.08.2018;21:45;77;29;48
15.08.2018;22:00;79;34;45
15.08.2018;22:15;80;29;51
15.08.2018;22:30;78;18;60
15.08.2018;22:45;73;17;56
15.08.2018;23:00;61;21;40
15.08.2018;23:15;38;6;32
15.08.2018;23:30;37;11;26
15.08.2018;23:45;36;14;22
16.08.2018;00:00;23;5;18
16.08.2018;00:15;33;10;23
16.08.2018;00:30;31;6;25
16.08.2018;00:45;16;8;8
16.08.2018;01:00;16;1;15
16.08.2018;01:15;14;3;11
16.08.2018;01:30;11;4;7
16.08.2018;01:45;6;2;4
16.08.2018;02:00;7;6;1
16.08.2018;02:15;3;1;2
16.08.2018;02:30;4;1;3
16.08.2018;02:45;2;2;0
16.08.2018;03:00;2;0;2
16.08.2018;03:15;5;1;4
16.08.2018;03:30;4;3;1
16.08.2018;03:45;2;0;2
16.08.2018;04:00;3;1;2
16.08.2018;04:15;4;1;3
16.08.2018;04:30;5;2;3
16.08.2018;04:45;1;0;1
16.08.2018;05:00;3;3;0
16.08.2018;05:15;13;7;6
16.08.2018;05:30;15;7;8
16.08.2018;05:45;16;10;6
16.08.2018;06:00;21;11;10
16.08.2018;06:15;35;27;8
16.08.2018;06:30;40;25;15
16.08.2018;06:45;47;31;16
16.08.2018;07:00;56;33;23
16.08.2018;07:15;69;38;31
16.08.2018;07:30;81;37;44
16.08.2018;07:45;109;63;46
16.08.2018;08:00;91;56;35
16.08.2018;08:15;99;49;50
16.08.2018;08:30;136;84;52
16.08.2018;08:45;138;89;49
16.08.2018;09:00;92;64;28
16.08.2018;09:15;114;60;54
16.08.2018;09:30;104;63;41
16.08.2018;09:45;106;63;43
16.08.2018;10:00;126;68;58
16.08.2018;10:15;113;69;44
16.08.2018;10:30;135;71;64
16.08.2018;10:45;124;60;64
16.08.2018;11:00;106;58;48
16.08.2018;11:15;138;62;76
16.08.2018;11:30;126;60;66
16.08.2018;11:45;131;58;73
16.08.2018;12:00;101;47;54
16.08.2018;12:15;140;68;72
16.08.2018;12:30;150;76;74
16.08.2018;12:45;128;61;67
16.08.2018;13:00;144;66;78
16.08.2018;13:15;117;59;58
16.08.2018;13:30;140;74;66
16.08.2018;13:45;144;60;84
16.08.2018;14:00;135;66;69
16.08.2018;14:15;131;75;56
16.08.2018;14:30;131;67;64
16.08.2018;14:45;154;63;91
16.08.2018;15:00;140;46;94
16.08.2018;15:15;153;54;99
16.08.2018;15:30;147;64;83
16.08.2018;15:45;174;87;87
16.08.2018;16:00;173;87;86
16.08.2018;16:15;151;64;87
16.08.2018;16:30;175;90;85
16.08.2018;16:45;179;95;84
16.08.2018;17:00;219;106;113
16.08.2018;17:15;205;81;124
16.08.2018;17:30;210;88;122
16.08.2018;17:45;201;116;85
16.08.2018;18:00;199;71;128
16.08.2018;18:15;193;91;102
16.08.2018;18:30;228;92;136
16.08.2018;18:45;199;63;136
16.08.2018;19:00;157;63;94
16.08.2018;19:15;190;69;121
16.08.2018;19:30;182;61;121
16.08.2018;19:45;140;69;71
16.08.2018;20:00;118;42;76
16.08.2018;20:15;123;41;82
16.08.2018;20:30;119;55;64
16.08.2018;20:45;124;57;67
16.08.2018;21:00;103;44;59
16.08.2018;21:15;72;37;35
16.08.2018;21:30;88;33;55
16.08.2018;21:45;76;37;39
16.08.2018;22:00;86;35;51
16.08.2018;22:15;78;33;45
16.08.2018;22:30;64;36;28
16.08.2018;22:45;93;46;47
16.08.2018;23:00;63;34;29
16.08.2018;23:15;73;51;22
16.08.2018;23:30;55;39;16
16.08.2018;23:45;45;24;21
17.08.2018;00:00;44;27;17
17.08.2018;00:15;32;11;21
17.08.2018;00:30;50;33;17
17.08.2018;00:45;33;26;7
17.08.2018;01:00;20;5;15
17.08.2018;01:15;20;6;14
17.08.2018;01:30;15;10;5
17.08.2018;01:45;19;14;5
17.08.2018;02:00;10;6;4
17.08.2018;02:15;8;1;7
17.08.2018;02:30;13;6;7
17.08.2018;02:45;6;5;1
17.08.2018;03:00;4;1;3
17.08.2018;03:15;5;2;3
17.08.2018;03:30;1;1;0
17.08.2018;03:45;0;0;0
17.08.2018;04:00;3;3;0
17.08.2018;04:15;0;0;0
17.08.2018;04:30;3;2;1
17.08.2018;04:45;3;3;0
17.08.2018;05:00;4;2;2
17.08.2018;05:15;6;2;4
17.08.2018;05:30;14;6;8